Location: Zilina
(49.2167°N, 18.7333°E)
Time: 07:29:39
(UTC+02:00)

ISS - Pass Details

Date: 27 September 2018
Orbit: 403 x 408 km, 51.6° (Epoch: 21 October)

Event Time Altitude Azimuth Distance (km) Brightness Sun altitude
Rises 20:52:21 0° 269° (W) 2,337 1.1 -23.0°
Reaches altitude 10° 20:54:28 10° 274° (W) 1,476 -0.1 -23.3°
Enters shadow 20:56:54 41° 300° (WNW) 609 -2.5 -23.6°
